Weather History for Williamsport, PA

Change the Weather History Date:

Monday, October 7, 2013

  Actual Average Record
Temperature  
Mean Temperature 61 °F 55 °F  
Max Temperature 73 °F 65 °F 87 °F (1941)
Min Temperature 48 °F 45 °F 28 °F (1935)
Degree Days  
Heating Degree Days 4 10  
Month to date heating degree days 4 65  
Since 1 July heating degree days 130 193  
Cooling Degree Days 0 0  
Month to date cooling degree days 30 1  
Year to date cooling degree days 863 698  
Growing Degree Days 12 (Base 50)    
Moisture  
Dew Point 57 °F    
Average Humidity 67    
Maximum Humidity 87    
Minimum Humidity 47    
Precipitation  
Precipitation 1.05 in 0.12 in 2.78 in (2005)
Month to date precipitation 1.29 0.83  
Year to date precipitation 24.51 32.02  
Snow  
Snow 0.00 in - - ()
Month to date snowfall 0.0  
Since 1 July snowfall 0.0  
Since 1 September snowfall 0.0  
Snow Depth 0.00 in    
Sea Level Pressure  
Sea Level Pressure 29.81 in    
Wind  
Wind Speed 8 mph (West)    
Max Wind Speed 25 mph    
Max Gust Speed 41 mph    
Visibility 9 miles    
Events Fog , Rain    
T = Trace of Precipitation, MM = Missing Value Source: NWS Daily Summary

Daily Weather History Graph

Daily Weather History Graph

Search for Another Location

Airport:

Trip Planner

Search our weather history database for the weather conditions in past years. The results will help you decide how hot, cold, wet, or windy it might be!

Date:

Astronomy

Oct. 07, 2013 Rise Set
Actual Time 7:10 AM EDT 6:39 PM EDT
Civil Twilight 6:43 AM EDT 7:06 PM EDT
Nautical Twilight 6:11 AM EDT 7:38 PM EDT
Astronomical Twilight 5:39 AM EDT 8:10 PM EDT
Moon 10:00 AM EDT (10/7) 8:20 PM EDT (10/7)
Length of Visible Light 12h 23m
Length of Day
11h 28m
Waxing Crescent, 8% of the Moon is Illuminated
Oct 7
Waxing Crescent
Oct 11
First Quarter
Oct 18
Full
Oct 26
Last Quarter
Nov 3
New

Hourly Weather History & Observations

Time (EDT) Temp. Dew Point Humidity Pressure Visibility Wind Dir Wind Speed Gust Speed Precip Events Conditions
12:54 AM 72.0 °F 64.0 °F 76% 29.86 in 10.0 mi East 11.5 mph - N/A   Overcast
1:54 AM 72.0 °F 64.0 °F 76% 29.84 in 10.0 mi East 8.1 mph - N/A   Overcast
2:54 AM 73.0 °F 64.0 °F 73% 29.82 in 10.0 mi Calm Calm - N/A   Overcast
3:54 AM 73.0 °F 64.0 °F 73% 29.79 in 10.0 mi Variable 6.9 mph - N/A   Overcast
4:54 AM 73.0 °F 64.0 °F 73% 29.78 in 10.0 mi Variable 3.5 mph - N/A   Overcast
5:54 AM 72.0 °F 64.0 °F 76% 29.77 in 10.0 mi East 8.1 mph - N/A   Mostly Cloudy
6:28 AM 71.6 °F 64.4 °F 78% 29.77 in 10.0 mi Variable 5.8 mph 16.1 mph N/A   Overcast
6:54 AM 72.0 °F 64.0 °F 76% 29.75 in 10.0 mi East 9.2 mph 19.6 mph N/A   Overcast
7:03 AM 71.6 °F 64.4 °F 78% 29.76 in 10.0 mi ESE 10.4 mph 25.3 mph N/A   Overcast
7:23 AM 71.6 °F 64.4 °F 78% 29.76 in 10.0 mi Variable 6.9 mph 17.3 mph 0.00 in Rain Light Rain
7:54 AM 71.1 °F 64.0 °F 78% 29.74 in 10.0 mi Variable 6.9 mph 20.7 mph 0.00 in   Overcast
8:37 AM 71.6 °F 64.4 °F 78% 29.73 in 10.0 mi SE 12.7 mph 24.2 mph N/A   Mostly Cloudy
8:54 AM 72.0 °F 64.0 °F 76% 29.71 in 10.0 mi ESE 10.4 mph 23.0 mph N/A   Mostly Cloudy
9:28 AM 73.4 °F 64.4 °F 73% 29.71 in 10.0 mi East 12.7 mph 24.2 mph N/A   Overcast
9:54 AM 73.0 °F 64.0 °F 73% 29.70 in 10.0 mi East 11.5 mph 18.4 mph 0.00 in   Overcast
10:27 AM 62.6 °F 60.8 °F 94% 29.71 in 1.8 mi West 20.7 mph 32.2 mph 0.02 in Rain Light Rain
10:38 AM 60.8 °F 59.0 °F 94% 29.73 in 0.8 mi West 18.4 mph 41.4 mph 0.13 in Rain Light Rain
10:54 AM 61.0 °F 59.0 °F 93% 29.72 in 0.5 mi West 19.6 mph 25.3 mph 0.62 in Fog , Rain Heavy Rain
11:08 AM 60.8 °F 57.2 °F 88% 29.72 in 1.2 mi West 11.5 mph 26.5 mph 0.23 in Rain Heavy Rain
11:15 AM 60.8 °F 59.0 °F 94% 29.72 in 3.0 mi West 12.7 mph 19.6 mph 0.26 in Rain Rain
11:25 AM 60.8 °F 59.0 °F 94% 29.73 in 8.0 mi West 11.5 mph - 0.27 in Rain Light Rain
11:37 AM 62.6 °F 59.0 °F 88% 29.75 in 10.0 mi West 15.0 mph 20.7 mph 0.27 in Rain Light Rain
11:41 AM 62.6 °F 59.0 °F 88% 29.75 in 10.0 mi West 16.1 mph 23.0 mph 0.27 in   Overcast
11:54 AM 62.1 °F 57.9 °F 86% 29.75 in 10.0 mi West 17.3 mph 26.5 mph 0.27 in Rain Light Rain
12:16 PM 60.8 °F 57.2 °F 88% 29.76 in 10.0 mi West 16.1 mph - 0.00 in Rain Light Rain
12:54 PM 59.0 °F 55.9 °F 90% 29.77 in 6.0 mi West 12.7 mph 23.0 mph 0.08 in Rain Rain
1:54 PM 57.9 °F 54.0 °F 87% 29.78 in 10.0 mi West 8.1 mph - 0.08 in Rain Light Rain
2:54 PM 60.1 °F 54.0 °F 80% 29.82 in 10.0 mi West 8.1 mph - 0.00 in   Overcast
3:54 PM 62.1 °F 48.9 °F 62% 29.83 in 10.0 mi WSW 12.7 mph 21.9 mph N/A   Mostly Cloudy
4:54 PM 62.1 °F 45.0 °F 53% 29.86 in 10.0 mi WSW 15.0 mph 23.0 mph N/A   Clear
5:54 PM 62.1 °F 42.1 °F 48% 29.89 in 10.0 mi West 12.7 mph 23.0 mph N/A   Partly Cloudy
6:54 PM 59.0 °F 39.9 °F 49% 29.93 in 10.0 mi West 6.9 mph - N/A   Clear
7:54 PM 54.0 °F 44.1 °F 69% 29.96 in 10.0 mi Calm Calm - N/A   Clear
8:54 PM 53.1 °F 44.1 °F 71% 29.99 in 10.0 mi West 4.6 mph - N/A   Clear
9:54 PM 52.0 °F 43.0 °F 71% 30.01 in 10.0 mi WNW 3.5 mph - N/A   Clear
10:54 PM 50.0 °F 43.0 °F 77% 30.03 in 10.0 mi NW 6.9 mph - N/A   Clear
11:54 PM 51.1 °F 43.0 °F 74% 30.04 in 10.0 mi WNW 6.9 mph - N/A   Clear